XABAL MMUN-MMTO

Flight info

Callsign XABAL
Flight time N/A
Altitude 47000
Route CUN3A CUN UJ84 CZA UT20 UBVOV UT101 UMAVO UT104 LENUL LENUL3A
Aircraft GA7C/M-BDE2E3FGHIJ4J5M1RVWXY/LB1D1

Departure

Time 2026-04-30 20:21
Airport Cancún International Airport (MMUN)

Arrival

Time N/A
Airport Adolfo López Mateos International Airport (MMTO)
Time Latitude Longitude Altitude Speed Heading
2026-04-30 20:05 21.03374 -86.86436 37 ft 0 kts 124°
2026-04-30 20:14 21.03363 -86.86425 37 ft 6 kts 151°
2026-04-30 20:14 21.03293 -86.86450 37 ft 17 kts 217°
2026-04-30 20:15 21.03197 -86.86524 36 ft 17 kts 214°
2026-04-30 20:15 21.03157 -86.86591 36 ft 8 kts 307°
2026-04-30 20:15 21.03188 -86.86639 36 ft 8 kts 303°
2026-04-30 20:15 21.03219 -86.86689 35 ft 8 kts 304°
2026-04-30 20:16 21.03251 -86.86739 35 ft 8 kts 304°
2026-04-30 20:16 21.03283 -86.86790 36 ft 8 kts 304°
2026-04-30 20:16 21.03316 -86.86843 36 ft 9 kts 304°
2026-04-30 20:16 21.03351 -86.86899 35 ft 9 kts 303°
2026-04-30 20:17 21.03390 -86.86961 35 ft 12 kts 304°
2026-04-30 20:17 21.03446 -86.87052 36 ft 16 kts 302°
2026-04-30 20:17 21.03511 -86.87156 36 ft 18 kts 305°
2026-04-30 20:17 21.03590 -86.87280 36 ft 23 kts 304°
2026-04-30 20:18 21.03686 -86.87434 36 ft 27 kts 303°
2026-04-30 20:18 21.03801 -86.87618 36 ft 32 kts 304°
2026-04-30 20:18 21.03924 -86.87816 36 ft 32 kts 304°
2026-04-30 20:18 21.04039 -86.88011 35 ft 30 kts 296°
2026-04-30 20:19 21.04158 -86.88187 35 ft 29 kts 304°
2026-04-30 20:19 21.04179 -86.88305 35 ft 5 kts 216°
2026-04-30 20:19 21.04173 -86.88309 35 ft 0 kts 215°
2026-04-30 20:19 21.04171 -86.88311 35 ft 1 kts 215°
2026-04-30 20:20 21.04147 -86.88329 34 ft 8 kts 214°
2026-04-30 20:20 21.04080 -86.88360 32 ft 13 kts 173°
2026-04-30 20:20 21.04015 -86.88266 31 ft 38 kts 124°
2026-04-30 20:20 21.03726 -86.87806 33 ft 110 kts 124°
2026-04-30 20:21 21.03178 -86.86943 136 ft 164 kts 126°
2026-04-30 20:21 21.02537 -86.85831 933 ft 188 kts 122°
2026-04-30 20:21 21.01842 -86.84549 1872 ft 205 kts 122°
2026-04-30 20:21 21.01006 -86.83161 2674 ft 237 kts 127°
2026-04-30 20:22 21.00019 -86.81748 4070 ft 236 kts 127°
2026-04-30 20:22 20.99097 -86.80281 5475 ft 240 kts 125°
2026-04-30 20:22 20.98052 -86.78873 6589 ft 251 kts 141°
2026-04-30 20:22 20.96396 -86.78074 7335 ft 274 kts 171°
2026-04-30 20:23 20.94499 -86.78286 8630 ft 282 kts 195°
2026-04-30 20:23 20.92770 -86.79384 9707 ft 300 kts 222°
2026-04-30 20:23 20.91619 -86.81234 10779 ft 309 kts 249°
2026-04-30 20:23 20.91286 -86.83501 11950 ft 309 kts 276°
2026-04-30 20:24 20.91898 -86.85593 13552 ft 286 kts 304°
2026-04-30 20:24 20.93205 -86.87069 14824 ft 271 kts 329°
2026-04-30 20:24 20.94985 -86.87782 15629 ft 272 kts 354°
2026-04-30 20:24 20.96852 -86.87850 16519 ft 273 kts 360°
2026-04-30 20:25 21.00735 -86.89104 17348 ft 324 kts 320°
2026-04-30 20:25 21.02056 -86.91042 18430 ft 326 kts 296°
2026-04-30 20:26 21.02298 -86.96115 19417 ft 370 kts 252°
2026-04-30 20:26 20.99798 -87.01187 20262 ft 408 kts 243°
2026-04-30 20:26 20.98464 -87.03916 20169 ft 424 kts 246°
2026-04-30 20:27 20.96523 -87.10267 20913 ft 448 kts 261°
2026-04-30 20:27 20.95333 -87.16803 23500 ft 457 kts 258°
2026-04-30 20:28 20.93561 -87.23433 25270 ft 470 kts 258°
2026-04-30 20:28 20.92051 -87.30333 27059 ft 484 kts 258°
2026-04-30 20:29 20.90293 -87.37358 28864 ft 499 kts 258°
2026-04-30 20:30 20.87705 -87.48374 31267 ft 518 kts 258°
2026-04-30 20:30 20.84983 -87.59748 33355 ft 534 kts 259°
2026-04-30 20:31 20.82170 -87.71404 35264 ft 545 kts 259°
2026-04-30 20:32 20.79386 -87.82911 38976 ft 513 kts 258°
2026-04-30 20:32 20.77644 -87.90165 41009 ft 487 kts 258°
2026-04-30 20:33 20.76795 -87.93655 41745 ft 483 kts 258°
2026-04-30 20:33 20.75124 -88.00542 42907 ft 475 kts 257°
2026-04-30 20:33 20.74298 -88.03946 43467 ft 472 kts 257°
2026-04-30 20:34 20.72658 -88.10680 44486 ft 465 kts 257°
2026-04-30 20:34 20.71034 -88.17342 45051 ft 464 kts 257°
2026-04-30 20:35 20.70220 -88.20680 45273 ft 464 kts 257°
2026-04-30 20:35 20.69404 -88.24017 45456 ft 465 kts 257°
2026-04-30 20:35 20.67767 -88.30689 45643 ft 471 kts 257°
2026-04-30 20:36 20.66087 -88.37539 45793 ft 477 kts 257°
2026-04-30 20:36 20.64424 -88.44350 46316 ft 474 kts 257°
2026-04-30 20:37 20.63584 -88.47800 46475 ft 475 kts 257°
2026-04-30 20:37 20.62766 -88.51169 46635 ft 475 kts 257°
2026-04-30 20:37 20.62248 -88.54634 46741 ft 472 kts 270°
2026-04-30 20:37 20.62377 -88.58130 46880 ft 472 kts 276°
2026-04-30 20:38 20.62740 -88.61628 46858 ft 476 kts 277°
2026-04-30 20:38 20.63384 -88.68720 46857 ft 485 kts 272°
2026-04-30 20:39 20.64195 -88.79583 46845 ft 497 kts 281°
2026-04-30 20:40 20.66066 -88.90629 46814 ft 510 kts 275°
2026-04-30 20:40 20.66162 -88.98236 46813 ft 510 kts 269°
2026-04-30 20:41 20.66221 -89.05700 46825 ft 497 kts 274°
2026-04-30 20:41 20.66463 -89.09355 46813 ft 488 kts 274°
2026-04-30 20:41 20.66577 -89.12922 46798 ft 476 kts 271°
2026-04-30 20:41 20.66603 -89.16442 46810 ft 472 kts 271°
2026-04-30 20:42 20.66852 -89.23415 46803 ft 468 kts 273°
2026-04-30 20:43 20.67136 -89.33828 46806 ft 467 kts 272°
2026-04-30 20:43 20.67358 -89.40752 46801 ft 466 kts 272°
2026-04-30 20:44 20.67647 -89.51063 46806 ft 464 kts 272°
2026-04-30 20:45 20.68019 -89.64372 46809 ft 460 kts 272°
2026-04-30 20:45 20.68206 -89.71201 46805 ft 459 kts 272°
2026-04-30 20:46 20.68569 -89.84761 46802 ft 455 kts 272°
2026-04-30 20:47 20.68833 -89.94863 46796 ft 452 kts 272°
2026-04-30 20:48 20.69090 -90.04903 46798 ft 449 kts 272°
2026-04-30 20:48 20.69257 -90.11561 46791 ft 448 kts 272°
2026-04-30 20:49 20.69393 -90.17068 46797 ft 446 kts 272°
2026-04-30 20:50 20.69634 -90.26965 46804 ft 443 kts 272°
2026-04-30 20:50 20.69814 -90.34584 46804 ft 441 kts 272°
2026-04-30 20:51 20.69967 -90.41110 46811 ft 439 kts 272°
2026-04-30 20:51 20.70166 -90.49795 46814 ft 436 kts 272°
2026-04-30 20:52 20.70310 -90.56205 46816 ft 433 kts 272°
2026-04-30 20:53 20.70522 -90.65831 46818 ft 430 kts 272°
2026-04-30 20:53 20.70659 -90.72200 46816 ft 428 kts 272°
2026-04-30 20:54 20.70859 -90.81695 46819 ft 424 kts 272°
2026-04-30 20:55 20.71052 -90.91113 46814 ft 420 kts 272°
2026-04-30 20:55 20.71177 -90.97333 46824 ft 417 kts 272°
2026-04-30 20:56 20.71357 -91.06541 46823 ft 413 kts 271°
2026-04-30 20:57 20.71532 -91.15690 46817 ft 408 kts 272°
2026-04-30 20:57 20.71644 -91.21719 46824 ft 404 kts 272°
2026-04-30 20:58 20.71808 -91.30654 46817 ft 398 kts 272°
2026-04-30 20:58 20.71912 -91.36522 46819 ft 393 kts 272°
2026-04-30 20:59 20.72061 -91.45144 46820 ft 384 kts 271°
2026-04-30 21:00 20.72249 -91.56349 46815 ft 370 kts 272°
2026-04-30 21:01 20.72382 -91.64441 46814 ft 356 kts 272°
2026-04-30 21:01 20.72464 -91.69638 46803 ft 344 kts 272°
2026-04-30 21:02 20.72503 -91.72171 46807 ft 337 kts 272°
2026-04-30 21:02 20.72579 -91.77056 46798 ft 320 kts 271°
2026-04-30 21:03 20.72648 -91.81659 46774 ft 299 kts 271°
2026-04-30 21:03 20.72680 -91.83828 46748 ft 285 kts 272°
2026-04-30 21:03 20.72712 -91.85876 46627 ft 274 kts 271°
2026-04-30 21:03 20.72740 -91.87903 46217 ft 274 kts 272°
2026-04-30 21:04 20.72772 -91.89962 45655 ft 280 kts 271°
2026-04-30 21:04 20.72801 -91.92040 45289 ft 278 kts 271°
2026-04-30 21:04 20.72858 -91.96036 44862 ft 264 kts 271°
2026-04-30 21:05 20.72887 -91.98001 44404 ft 266 kts 271°
2026-04-30 21:05 20.72914 -91.99991 43888 ft 267 kts 272°
2026-04-30 21:05 20.72942 -92.01960 43581 ft 262 kts 272°
2026-04-30 21:05 20.72967 -92.03886 43303 ft 257 kts 272°
2026-04-30 21:06 20.72995 -92.05788 42882 ft 257 kts 272°
2026-04-30 21:06 20.73020 -92.07713 42429 ft 259 kts 273°
2026-04-30 21:06 20.73046 -92.09630 42087 ft 257 kts 273°
2026-04-30 21:06 20.73071 -92.11525 41825 ft 252 kts 273°
2026-04-30 21:07 20.73096 -92.13390 41511 ft 251 kts 274°
2026-04-30 21:07 20.73121 -92.15255 41132 ft 252 kts 274°
2026-04-30 21:07 20.73145 -92.17131 40795 ft 251 kts 274°
2026-04-30 21:07 20.73169 -92.18989 40531 ft 249 kts 274°
2026-04-30 21:08 20.73191 -92.20804 40268 ft 247 kts 275°
2026-04-30 21:08 20.73216 -92.22639 39963 ft 247 kts 275°
2026-04-30 21:08 20.73238 -92.24477 39657 ft 247 kts 275°
2026-04-30 21:08 20.73262 -92.26302 39396 ft 245 kts 275°
2026-04-30 21:09 20.73283 -92.28118 39161 ft 244 kts 276°
2026-04-30 21:09 20.73307 -92.29924 38899 ft 243 kts 276°
2026-04-30 21:09 20.73328 -92.31731 38625 ft 243 kts 276°
2026-04-30 21:09 20.73351 -92.33541 38366 ft 243 kts 276°
2026-04-30 21:10 20.73370 -92.35332 38109 ft 241 kts 276°
2026-04-30 21:10 20.73393 -92.37115 37852 ft 239 kts 276°
2026-04-30 21:10 20.73412 -92.38890 37574 ft 239 kts 276°
2026-04-30 21:10 20.73435 -92.40666 37312 ft 238 kts 276°
2026-04-30 21:11 20.73453 -92.42430 37078 ft 237 kts 276°
2026-04-30 21:11 20.73475 -92.44183 36864 ft 235 kts 275°
2026-04-30 21:11 20.73493 -92.45926 36612 ft 235 kts 275°
2026-04-30 21:11 20.73515 -92.47673 36384 ft 234 kts 275°
2026-04-30 21:12 20.73532 -92.49405 36179 ft 233 kts 275°
2026-04-30 21:12 20.73553 -92.51129 35972 ft 232 kts 275°
2026-04-30 21:12 20.73570 -92.52849 35757 ft 231 kts 275°
2026-04-30 21:12 20.73591 -92.54565 35551 ft 231 kts 275°
2026-04-30 21:13 20.73607 -92.56258 35369 ft 229 kts 275°
2026-04-30 21:13 20.73626 -92.57976 35170 ft 229 kts 275°
2026-04-30 21:13 20.73644 -92.59657 34971 ft 229 kts 274°
2026-04-30 21:13 20.73662 -92.61352 34801 ft 227 kts 274°
2026-04-30 21:14 20.73679 -92.63037 34631 ft 226 kts 274°
2026-04-30 21:14 20.73696 -92.64721 34444 ft 226 kts 274°
2026-04-30 21:14 20.73714 -92.66404 34266 ft 226 kts 274°
2026-04-30 21:14 20.73730 -92.68075 34110 ft 225 kts 274°
2026-04-30 21:15 20.73748 -92.69740 33948 ft 224 kts 274°
2026-04-30 21:15 20.73763 -92.71404 33775 ft 224 kts 274°
2026-04-30 21:15 20.73781 -92.73064 33588 ft 223 kts 274°
2026-04-30 21:15 20.73794 -92.74718 33421 ft 222 kts 274°
2026-04-30 21:16 20.73812 -92.76364 33256 ft 221 kts 274°
2026-04-30 21:16 20.73827 -92.78011 33072 ft 221 kts 273°
2026-04-30 21:16 20.73843 -92.79648 32914 ft 220 kts 273°
2026-04-30 21:16 20.73857 -92.81262 32770 ft 219 kts 273°
2026-04-30 21:17 20.73873 -92.82890 32610 ft 219 kts 274°
2026-04-30 21:17 20.73888 -92.84514 32451 ft 218 kts 273°
2026-04-30 21:17 20.73902 -92.86138 32305 ft 218 kts 274°
2026-04-30 21:17 20.73917 -92.87751 32172 ft 217 kts 273°
2026-04-30 21:18 20.73931 -92.89358 32024 ft 216 kts 273°
2026-04-30 21:18 20.73945 -92.90964 31879 ft 216 kts 273°
2026-04-30 21:18 20.73958 -92.92566 31746 ft 215 kts 273°
2026-04-30 21:18 20.73972 -92.94161 31625 ft 214 kts 273°
2026-04-30 21:19 20.73986 -92.95751 31498 ft 214 kts 274°
2026-04-30 21:19 20.73999 -92.97336 31373 ft 213 kts 273°
2026-04-30 21:19 20.74012 -92.98918 31247 ft 213 kts 274°
2026-04-30 21:19 20.74026 -93.00497 31123 ft 212 kts 273°
2026-04-30 21:20 20.74037 -93.02072 31011 ft 212 kts 274°
2026-04-30 21:20 20.74051 -93.03641 30900 ft 211 kts 273°
2026-04-30 21:20 20.74062 -93.05211 30781 ft 211 kts 274°
2026-04-30 21:20 20.74076 -93.06755 30671 ft 210 kts 273°
2026-04-30 21:21 20.74086 -93.08315 30565 ft 210 kts 274°
2026-04-30 21:21 20.74100 -93.09867 30457 ft 209 kts 273°
2026-04-30 21:21 20.74123 -93.12973 30254 ft 208 kts 273°
2026-04-30 21:22 20.74133 -93.14517 30159 ft 208 kts 274°
2026-04-30 21:22 20.74168 -93.19139 29862 ft 206 kts 273°
2026-04-30 21:23 20.74177 -93.20667 29754 ft 206 kts 274°
2026-04-30 21:23 20.74190 -93.22199 29645 ft 206 kts 273°
2026-04-30 21:23 20.74210 -93.25229 29431 ft 205 kts 273°
2026-04-30 21:24 20.74218 -93.26750 29344 ft 204 kts 273°
2026-04-30 21:24 20.74230 -93.28265 29248 ft 204 kts 273°
2026-04-30 21:24 20.74238 -93.29782 29146 ft 204 kts 273°
2026-04-30 21:24 20.74250 -93.31297 29045 ft 204 kts 273°
2026-04-30 21:25 20.74269 -93.34314 28877 ft 202 kts 273°
2026-04-30 21:25 20.74276 -93.35819 28778 ft 203 kts 273°
2026-04-30 21:25 20.74287 -93.37323 28694 ft 202 kts 273°
2026-04-30 21:26 20.74305 -93.40303 28542 ft 201 kts 273°
2026-04-30 21:26 20.74311 -93.41796 28448 ft 201 kts 273°
2026-04-30 21:27 20.74328 -93.44787 28296 ft 200 kts 273°
2026-04-30 21:27 20.74339 -93.46274 28221 ft 200 kts 273°
2026-04-30 21:27 20.74345 -93.47762 28145 ft 200 kts 273°
2026-04-30 21:28 20.74361 -93.50730 28013 ft 199 kts 273°
2026-04-30 21:28 20.74370 -93.52209 27944 ft 199 kts 274°
2026-04-30 21:28 20.74385 -93.55168 27804 ft 199 kts 274°
2026-04-30 21:29 20.74391 -93.56643 27745 ft 198 kts 273°
2026-04-30 21:29 20.74413 -93.61062 27554 ft 198 kts 274°
2026-04-30 21:30 20.74426 -93.64000 27436 ft 198 kts 274°
2026-04-30 21:31 20.74446 -93.68392 27269 ft 197 kts 273°
2026-04-30 21:31 20.74458 -93.71320 27173 ft 196 kts 273°
2026-04-30 21:32 20.74470 -93.74234 27061 ft 197 kts 273°
2026-04-30 21:32 20.74473 -93.75677 27015 ft 196 kts 274°
2026-04-30 21:32 20.74481 -93.77131 26971 ft 195 kts 273°
2026-04-30 21:32 20.74484 -93.78587 26919 ft 196 kts 273°
2026-04-30 21:33 20.74492 -93.80042 26869 ft 196 kts 273°
2026-04-30 21:33 20.74502 -93.82942 26793 ft 195 kts 273°
2026-04-30 21:33 20.74504 -93.84391 26737 ft 195 kts 273°
2026-04-30 21:34 20.74511 -93.85846 26690 ft 195 kts 273°
2026-04-30 21:34 20.74520 -93.88739 26616 ft 195 kts 273°
2026-04-30 21:34 20.74522 -93.90187 26562 ft 195 kts 273°
2026-04-30 21:35 20.74529 -93.91635 26528 ft 195 kts 273°
2026-04-30 21:35 20.74531 -93.93078 26496 ft 194 kts 273°
2026-04-30 21:35 20.74537 -93.94502 26446 ft 194 kts 274°
2026-04-30 21:35 20.74539 -93.95946 26409 ft 194 kts 273°
2026-04-30 21:36 20.74544 -93.97387 26377 ft 194 kts 274°
2026-04-30 21:36 20.74546 -93.98827 26329 ft 194 kts 273°
2026-04-30 21:37 20.74558 -94.03141 26235 ft 193 kts 274°
2026-04-30 21:37 20.74559 -94.04582 26197 ft 194 kts 273°
2026-04-30 21:37 20.74564 -94.06015 26168 ft 193 kts 273°
2026-04-30 21:37 20.74566 -94.06967 26148 ft 193 kts 273°
2026-04-30 21:38 20.74567 -94.08406 26118 ft 193 kts 273°
2026-04-30 21:38 20.74572 -94.09837 26087 ft 193 kts 273°
2026-04-30 21:38 20.74572 -94.11271 26057 ft 193 kts 274°
2026-04-30 21:38 20.74576 -94.12704 26025 ft 193 kts 273°
2026-04-30 21:39 20.74577 -94.14140 25995 ft 193 kts 274°
2026-04-30 21:39 20.74581 -94.15571 25967 ft 193 kts 273°
2026-04-30 21:39 20.74581 -94.17002 25940 ft 193 kts 273°
2026-04-30 21:39 20.74585 -94.18433 25913 ft 192 kts 273°
2026-04-30 21:40 20.74585 -94.19864 25889 ft 192 kts 273°
2026-04-30 21:40 20.74589 -94.21294 25856 ft 193 kts 273°
2026-04-30 21:40 20.74588 -94.22725 25830 ft 192 kts 273°
2026-04-30 21:40 20.74592 -94.24155 25819 ft 192 kts 273°
2026-04-30 21:41 20.74591 -94.25577 25790 ft 192 kts 273°
2026-04-30 21:41 20.74595 -94.26986 25751 ft 193 kts 273°
2026-04-30 21:41 20.74593 -94.28416 25734 ft 192 kts 273°
2026-04-30 21:41 20.74597 -94.29841 25721 ft 192 kts 273°
2026-04-30 21:42 20.74595 -94.31264 25704 ft 192 kts 273°
2026-04-30 21:42 20.74598 -94.32692 25672 ft 192 kts 273°
2026-04-30 21:42 20.74597 -94.34115 25654 ft 192 kts 273°
2026-04-30 21:42 20.74599 -94.35541 25639 ft 191 kts 273°
2026-04-30 21:43 20.74598 -94.36967 25611 ft 192 kts 273°
2026-04-30 21:43 20.74599 -94.38390 25588 ft 192 kts 273°
2026-04-30 21:43 20.74599 -94.39813 25572 ft 191 kts 273°
2026-04-30 21:43 20.74600 -94.41234 25554 ft 191 kts 273°
2026-04-30 21:44 20.74599 -94.42655 25531 ft 191 kts 273°
2026-04-30 21:44 20.74600 -94.44078 25508 ft 191 kts 273°
2026-04-30 21:44 20.74599 -94.45499 25498 ft 191 kts 273°
2026-04-30 21:44 20.74598 -94.46918 25484 ft 191 kts 273°
2026-04-30 21:45 20.74598 -94.48337 25462 ft 191 kts 273°
2026-04-30 21:45 20.74597 -94.49758 25449 ft 191 kts 273°
2026-04-30 21:45 20.74597 -94.51175 25436 ft 191 kts 273°
2026-04-30 21:45 20.74596 -94.52595 25413 ft 191 kts 273°
2026-04-30 21:46 20.74595 -94.54013 25403 ft 191 kts 273°
2026-04-30 21:46 20.74593 -94.55429 25391 ft 191 kts 273°
2026-04-30 21:46 20.74593 -94.56846 25370 ft 191 kts 273°
2026-04-30 21:46 20.74590 -94.58262 25358 ft 191 kts 273°
2026-04-30 21:47 20.74590 -94.59677 25346 ft 190 kts 273°
2026-04-30 21:47 20.74587 -94.61093 25322 ft 191 kts 273°
2026-04-30 21:47 20.74587 -94.62513 25316 ft 190 kts 273°
2026-04-30 21:47 20.74584 -94.63907 25310 ft 190 kts 273°
2026-04-30 21:48 20.74584 -94.65319 25289 ft 190 kts 273°
2026-04-30 21:48 20.74580 -94.66734 25276 ft 190 kts 273°
2026-04-30 21:48 20.74580 -94.68145 25268 ft 190 kts 273°
2026-04-30 21:48 20.74575 -94.69557 25250 ft 190 kts 273°
2026-04-30 21:49 20.74575 -94.70976 25232 ft 191 kts 273°
2026-04-30 21:49 20.74570 -94.72386 25229 ft 190 kts 273°
2026-04-30 21:49 20.74570 -94.73797 25215 ft 190 kts 273°
2026-04-30 21:49 20.74565 -94.75212 25198 ft 190 kts 273°
2026-04-30 21:50 20.74565 -94.76626 25187 ft 190 kts 273°
2026-04-30 21:50 20.74559 -94.78042 25179 ft 190 kts 273°
2026-04-30 21:50 20.74559 -94.79451 25175 ft 190 kts 273°
2026-04-30 21:50 20.74553 -94.80862 25158 ft 190 kts 273°
2026-04-30 21:51 20.74553 -94.82275 25139 ft 190 kts 272°
2026-04-30 21:51 20.74546 -94.83671 25139 ft 190 kts 272°
2026-04-30 21:51 20.74545 -94.85079 25125 ft 190 kts 273°
2026-04-30 21:51 20.74539 -94.86495 25112 ft 190 kts 272°
2026-04-30 21:52 20.74538 -94.87904 25106 ft 190 kts 273°
2026-04-30 21:52 20.74532 -94.89317 25089 ft 190 kts 272°
2026-04-30 21:52 20.74530 -94.90728 25080 ft 190 kts 273°
2026-04-30 21:52 20.74524 -94.92141 25070 ft 190 kts 272°
2026-04-30 21:53 20.74521 -94.93555 25068 ft 190 kts 273°
2026-04-30 21:53 20.74516 -94.94967 25055 ft 190 kts 272°
2026-04-30 21:53 20.74513 -94.96378 25042 ft 190 kts 273°
2026-04-30 21:53 20.74507 -94.97774 25036 ft 190 kts 272°
2026-04-30 21:54 20.74503 -94.99183 25031 ft 190 kts 273°
2026-04-30 21:54 20.74416 -95.00596 24959 ft 195 kts 259°
2026-04-30 21:54 20.74098 -95.02021 24919 ft 196 kts 263°
2026-04-30 21:54 20.73870 -95.03441 24996 ft 192 kts 263°
2026-04-30 21:55 20.73614 -95.04835 25009 ft 191 kts 262°
2026-04-30 21:55 20.73357 -95.06232 24982 ft 192 kts 263°
2026-04-30 21:55 20.73098 -95.07637 24974 ft 192 kts 262°
2026-04-30 21:55 20.72841 -95.09033 24978 ft 191 kts 262°
2026-04-30 21:56 20.72584 -95.10430 24962 ft 192 kts 262°
2026-04-30 21:56 20.72326 -95.11831 24950 ft 192 kts 262°
2026-04-30 21:56 20.72069 -95.13230 24956 ft 192 kts 262°
2026-04-30 21:56 20.71810 -95.14629 24951 ft 192 kts 262°
2026-04-30 21:57 20.71554 -95.16028 24931 ft 192 kts 262°
2026-04-30 21:57 20.71294 -95.17428 24932 ft 192 kts 262°
2026-04-30 21:57 20.71039 -95.18824 24933 ft 191 kts 262°
2026-04-30 21:57 20.70782 -95.20201 24923 ft 192 kts 262°
2026-04-30 21:58 20.70527 -95.21600 24918 ft 192 kts 262°
2026-04-30 21:58 20.70265 -95.22998 24911 ft 192 kts 262°
2026-04-30 21:58 20.70010 -95.24396 24904 ft 192 kts 262°
2026-04-30 21:58 20.69749 -95.25793 24899 ft 192 kts 262°
2026-04-30 21:59 20.69493 -95.27191 24897 ft 192 kts 262°
2026-04-30 21:59 20.69232 -95.28588 24891 ft 192 kts 262°
2026-04-30 21:59 20.68976 -95.29985 24883 ft 192 kts 262°
2026-04-30 22:00 20.68458 -95.32778 24871 ft 192 kts 262°
2026-04-30 22:00 20.67939 -95.35576 24862 ft 192 kts 262°
2026-04-30 22:00 20.67678 -95.36972 24857 ft 192 kts 262°
2026-04-30 22:01 20.67420 -95.38373 24853 ft 192 kts 262°
2026-04-30 22:01 20.67158 -95.39771 24844 ft 192 kts 262°
2026-04-30 22:01 20.66900 -95.41168 24841 ft 192 kts 262°
2026-04-30 22:01 20.66639 -95.42563 24846 ft 192 kts 262°
2026-04-30 22:02 20.66381 -95.43961 24828 ft 192 kts 262°
2026-04-30 22:02 20.66122 -95.45340 24834 ft 192 kts 262°
2026-04-30 22:02 20.65865 -95.46733 24833 ft 191 kts 262°
2026-04-30 22:02 20.65603 -95.48127 24827 ft 192 kts 262°
2026-04-30 22:03 20.65345 -95.49524 24821 ft 192 kts 262°
2026-04-30 22:03 20.65082 -95.50922 24823 ft 192 kts 262°
2026-04-30 22:03 20.64824 -95.52318 24827 ft 192 kts 262°
2026-04-30 22:03 20.64562 -95.53712 24818 ft 192 kts 262°
2026-04-30 22:04 20.64302 -95.55112 24815 ft 192 kts 262°
2026-04-30 22:04 20.64039 -95.56512 24812 ft 192 kts 262°
2026-04-30 22:04 20.63518 -95.59301 24805 ft 192 kts 262°
2026-04-30 22:05 20.63257 -95.60696 24805 ft 192 kts 262°
2026-04-30 22:05 20.62996 -95.62093 24804 ft 192 kts 262°
2026-04-30 22:05 20.62735 -95.63488 24804 ft 192 kts 262°
2026-04-30 22:05 20.62474 -95.64882 24805 ft 192 kts 262°
2026-04-30 22:06 20.62211 -95.66277 24799 ft 192 kts 262°
2026-04-30 22:06 20.61687 -95.69069 24795 ft 192 kts 262°
2026-04-30 22:06 20.61427 -95.70464 24794 ft 192 kts 262°
2026-04-30 22:07 20.61164 -95.71859 24792 ft 192 kts 262°
2026-04-30 22:07 20.60904 -95.73255 24789 ft 192 kts 262°
2026-04-30 22:07 20.60643 -95.74635 24789 ft 192 kts 262°
2026-04-30 22:07 20.60382 -95.76030 24793 ft 192 kts 262°
2026-04-30 22:08 20.60119 -95.77421 24792 ft 192 kts 262°
2026-04-30 22:08 20.59857 -95.78816 24791 ft 192 kts 262°
2026-04-30 22:08 20.59594 -95.80211 24790 ft 192 kts 262°
2026-04-30 22:08 20.59332 -95.81605 24792 ft 192 kts 262°
2026-04-30 22:09 20.59067 -95.82999 24787 ft 192 kts 262°
2026-04-30 22:09 20.58807 -95.84396 24789 ft 192 kts 262°
2026-04-30 22:09 20.58541 -95.85791 24794 ft 192 kts 262°
2026-04-30 22:09 20.58280 -95.87187 24798 ft 192 kts 262°
2026-04-30 22:10 20.58015 -95.88582 24796 ft 192 kts 262°
2026-04-30 22:10 20.57751 -95.89977 24801 ft 192 kts 262°
2026-04-30 22:10 20.57489 -95.91371 24803 ft 192 kts 262°
2026-04-30 22:10 20.57225 -95.92769 24800 ft 192 kts 262°
2026-04-30 22:11 20.56697 -95.95557 24801 ft 192 kts 262°
2026-04-30 22:11 20.56432 -95.96952 24803 ft 192 kts 262°
2026-04-30 22:11 20.56169 -95.98350 24799 ft 192 kts 262°
2026-04-30 22:12 20.55903 -95.99744 24799 ft 192 kts 262°
2026-04-30 22:12 20.55640 -96.01141 24801 ft 192 kts 262°
2026-04-30 22:12 20.55373 -96.02540 24801 ft 192 kts 262°
2026-04-30 22:12 20.55109 -96.03937 24804 ft 192 kts 262°
2026-04-30 22:13 20.54846 -96.05315 24802 ft 192 kts 262°
2026-04-30 22:13 20.54581 -96.06712 24804 ft 192 kts 262°
2026-04-30 22:13 20.54317 -96.08110 24806 ft 192 kts 262°
2026-04-30 22:13 20.54049 -96.09508 24807 ft 192 kts 262°
2026-04-30 22:14 20.53785 -96.10909 24808 ft 193 kts 262°
2026-04-30 22:14 20.53517 -96.12308 24818 ft 192 kts 262°
2026-04-30 22:14 20.53250 -96.13710 24823 ft 192 kts 262°
2026-04-30 22:14 20.52985 -96.15107 24829 ft 192 kts 262°
2026-04-30 22:15 20.52717 -96.16507 24821 ft 193 kts 262°
2026-04-30 22:15 20.52450 -96.17906 24830 ft 192 kts 262°
2026-04-30 22:15 20.52185 -96.19306 24828 ft 193 kts 262°
2026-04-30 22:15 20.51917 -96.20708 24829 ft 193 kts 262°
2026-04-30 22:16 20.51649 -96.22113 24828 ft 193 kts 262°
2026-04-30 22:16 20.51380 -96.23513 24838 ft 193 kts 262°
2026-04-30 22:17 20.50576 -96.27714 24846 ft 193 kts 262°
2026-04-30 22:17 20.50308 -96.29115 24847 ft 193 kts 262°
2026-04-30 22:17 20.49771 -96.31917 24854 ft 193 kts 262°
2026-04-30 22:18 20.49504 -96.33319 24853 ft 193 kts 262°
2026-04-30 22:18 20.48968 -96.36106 24856 ft 193 kts 262°
2026-04-30 22:19 20.48429 -96.38914 24866 ft 193 kts 262°
2026-04-30 22:19 20.48158 -96.40319 24867 ft 193 kts 262°
2026-04-30 22:19 20.47617 -96.43128 24885 ft 193 kts 262°
2026-04-30 22:20 20.47350 -96.44532 24887 ft 193 kts 262°
2026-04-30 22:20 20.46807 -96.47344 24900 ft 193 kts 262°
2026-04-30 22:20 20.46537 -96.48748 24908 ft 193 kts 262°
2026-04-30 22:21 20.46266 -96.50152 24905 ft 194 kts 262°
2026-04-30 22:21 20.45995 -96.51558 24905 ft 194 kts 262°
2026-04-30 22:21 20.45723 -96.52964 24910 ft 194 kts 262°
2026-04-30 22:21 20.45452 -96.54372 24911 ft 194 kts 262°
2026-04-30 22:22 20.45180 -96.55782 24911 ft 194 kts 262°
2026-04-30 22:22 20.44906 -96.57195 24923 ft 194 kts 262°
2026-04-30 22:22 20.44635 -96.58603 24938 ft 194 kts 262°
2026-04-30 22:22 20.44362 -96.60011 24940 ft 194 kts 262°
2026-04-30 22:23 20.44182 -96.60942 24942 ft 194 kts 263°
2026-04-30 22:23 20.43816 -96.62828 24947 ft 194 kts 262°
2026-04-30 22:23 20.43548 -96.64219 24952 ft 194 kts 262°
2026-04-30 22:23 20.43364 -96.65169 24960 ft 194 kts 262°
2026-04-30 22:24 20.43090 -96.66578 24966 ft 194 kts 262°
2026-04-30 22:24 20.42818 -96.67986 24974 ft 194 kts 262°
2026-04-30 22:24 20.42544 -96.69396 24976 ft 194 kts 262°
2026-04-30 22:24 20.42271 -96.70806 24980 ft 194 kts 262°
2026-04-30 22:25 20.41997 -96.72216 24980 ft 194 kts 262°
2026-04-30 22:25 20.41722 -96.73630 24979 ft 195 kts 262°
2026-04-30 22:25 20.41447 -96.75042 24998 ft 194 kts 262°
2026-04-30 22:25 20.41176 -96.76451 25007 ft 194 kts 262°
2026-04-30 22:26 20.40624 -96.79278 25005 ft 195 kts 262°
2026-04-30 22:26 20.40353 -96.80672 25016 ft 195 kts 262°
2026-04-30 22:26 20.40078 -96.82085 25022 ft 195 kts 262°
2026-04-30 22:27 20.39803 -96.83499 25033 ft 195 kts 262°
2026-04-30 22:27 20.39527 -96.84912 25037 ft 195 kts 262°
2026-04-30 22:27 20.38768 -96.87710 25031 ft 196 kts 258°
2026-04-30 22:28 20.38004 -96.90504 25052 ft 196 kts 257°
2026-04-30 22:28 20.37618 -96.91899 25064 ft 196 kts 257°